Weather History for Ithaca, NY

Change the Weather History Date:

Tuesday, November 6, 2012

  Actual Average Record
Temperature  
Mean Temperature 32 °F -  
Max Temperature 39 °F 49 °F 71 °F (1948)
Min Temperature 25 °F 33 °F 6 °F (1951)
Degree Days  
Heating Degree Days 32    
Moisture  
Dew Point 21 °F    
Average Humidity 68    
Maximum Humidity 81    
Minimum Humidity 47    
Precipitation  
Precipitation 0.00 in - - ()
Sea Level Pressure  
Sea Level Pressure 30.17 in    
Wind  
Wind Speed 2 mph (ESE)    
Max Wind Speed 7 mph    
Max Gust Speed -    
Visibility 10 miles    
Events      
Averages and records for this station are not official NWS values.
T = Trace of Precipitation, MM = Missing Value Source: NWS Daily Summary

Daily Weather History Graph

Daily Weather History Graph

Search for Another Location

Airport:

Trip Planner

Search our weather history database for the weather conditions in past years. The results will help you decide how hot, cold, wet, or windy it might be!

Date:

Astronomy

Nov. 06, 2012 Rise Set
Actual Time 6:46 AM EST 4:52 PM EST
Civil Twilight 6:16 AM EST 5:21 PM EST
Nautical Twilight 5:43 AM EST 5:55 PM EST
Astronomical Twilight 5:10 AM EST 6:28 PM EST
Moon 11:30 PM EST (11/6) 12:36 PM EST (11/6)
Length of Visible Light 11h 05m
Length of Day
10h 05m
Waning Gibbous, 53% of the Moon is Illuminated
Nov 6
Waning Gibbous
Nov 6
Last Quarter
Nov 13
New
Nov 20
First Quarter
Nov 28
Full

Hourly Weather History & Observations

Time (EST) Temp. Windchill Dew Point Humidity Pressure Visibility Wind Dir Wind Speed Gust Speed Precip Events Conditions
12:56 AM 31.1 °F - 23.0 °F 72% 30.20 in 10.0 mi Calm Calm - N/A   Overcast
1:56 AM 31.1 °F - 24.1 °F 75% 30.21 in 10.0 mi Calm Calm - N/A   Overcast
2:56 AM 30.0 °F - 22.1 °F 72% 30.19 in 10.0 mi Calm Calm - N/A   Overcast
3:56 AM 31.1 °F - 21.0 °F 66% 30.19 in 10.0 mi Calm Calm - N/A   Overcast
4:56 AM 30.0 °F - 24.1 °F 79% 30.19 in 10.0 mi Calm Calm - N/A   Overcast
5:56 AM 31.1 °F - 20.1 °F 64% 30.20 in 10.0 mi Calm Calm - N/A   Overcast
6:14 AM 30.2 °F - 21.2 °F 69% 30.16 in 10.0 mi Calm Calm - N/A   Overcast
6:56 AM 30.0 °F - 24.1 °F 79% 30.20 in 10.0 mi Calm Calm - N/A   Overcast
7:56 AM 31.1 °F - 21.0 °F 66% 30.22 in 10.0 mi Calm Calm - N/A   Overcast
8:56 AM 32.0 °F - 20.1 °F 62% 30.23 in 10.0 mi Calm Calm - N/A   Overcast
9:56 AM 32.0 °F 27.5 °F 20.1 °F 62% 30.23 in 10.0 mi ESE 4.6 mph - N/A   Overcast
10:56 AM 34.9 °F 29.9 °F 21.0 °F 57% 30.22 in 10.0 mi SSE 5.8 mph - N/A   Mostly Cloudy
11:56 AM 36.0 °F 31.1 °F 21.0 °F 55% 30.19 in 10.0 mi SSE 5.8 mph - N/A   Scattered Clouds
12:56 PM 37.9 °F 32.7 °F 21.0 °F 51% 30.17 in 10.0 mi Variable 6.9 mph - N/A   Partly Cloudy
1:56 PM 38.8 °F 34.6 °F 21.0 °F 49% 30.15 in 10.0 mi SSE 5.8 mph - N/A   Clear
2:56 PM 39.9 °F 36.7 °F 21.0 °F 47% 30.13 in 10.0 mi Variable 4.6 mph - N/A   Clear
3:56 PM 38.8 °F 35.4 °F 20.1 °F 47% 30.13 in 10.0 mi SSE 4.6 mph - N/A   Clear
5:56 PM 29.1 °F - 22.1 °F 75% 30.13 in 10.0 mi Calm Calm - N/A   Clear
6:56 PM 27.1 °F 23.2 °F 22.1 °F 81% 30.14 in 10.0 mi ENE 3.5 mph - N/A   Clear
7:56 PM 26.1 °F 20.5 °F 21.0 °F 81% 30.14 in 10.0 mi ENE 4.6 mph - N/A   Clear
8:56 PM 27.1 °F 21.8 °F 21.0 °F 78% 30.14 in 10.0 mi East 4.6 mph - N/A   Clear
9:56 PM 26.1 °F 19.4 °F 20.1 °F 78% 30.12 in 10.0 mi ENE 5.8 mph - N/A   Clear
10:56 PM 26.1 °F 18.4 °F 21.0 °F 81% 30.09 in 10.0 mi East 6.9 mph - N/A   Clear
11:56 PM 25.2 °F 17.3 °F 20.1 °F 81% 30.12 in 10.0 mi East 6.9 mph - N/A   Clear